Regional Weather Roundup
Issued by NWS Goodland, KS

Home | Current Version | Previous Version | Graphics & Text | Print | Product List | Glossary On
Versions: 1 2 3 4 5 6 7 8 9 10 11 12 13 14 15 16 17 18 19 20 21 22 23 24 25 26 27 28 29 30 31 32 33 34 35 36 37 38 39 40 41 42 43 44 45 46 47 48 49 50
000
ASUS43 KGLD 242359
RWRGLD

GOODLAND FORECAST AREA HOURLY WEATHER ROUNDUP
NATIONAL WEATHER SERVICE GOODLAND KS
600 PM MDT THU JUL 24 2014

...OFFICIAL OBSERVATIONS...

CITY           SKY/WX    TMP DP  RH WIND       PRES   REMARKS
GOODLAND KS    PTSUNNY   92  48  22 S12       29.88F
HILL CITY KS   MOSUNNY   96  67  38 S21G30    29.84F HX 100
IMPERIAL NEB   CLOUDY    90  52  27 W17G25    29.86R
MCCOOK NEB     PTSUNNY   96  54  24 S18       29.80F
AKRON CO       CLOUDY    84  49  29 N15G28    29.99R
BURLINGTON CO  PTSUNNY   93  40  15 S9        29.92S
LIMON CO       CLOUDY    87  46  24 S13       30.03R
$$

...UNOFFICIAL OBSERVATIONS...

CITY           SKY/WX    TMP DP  RH WIND       PRES   REMARKS
COLBY KS       SUNNY     97  57  26 S23G32    29.87F
GOVE KS          N/A     97  32  10 MISG        N/A
LENORA KS        N/A     95  32  11 MISG        N/A
NORTON KS      SUNNY     95  59  30 SE21G29   29.83S
SHARON SPRINGS   N/A     98  46  16 S20G26      N/A
KIT CARSON CO    N/A     99  39  12 N12         N/A
YUMA CO          N/A     85  51  30 N20G26      N/A
$$


USA.gov is the U.S. government's official web portal to all federal, state and local government web resources and services.